CFBMR KMKE-KPHX

Flight info

Callsign CFBMR
Flight time 3h 2m
Altitude 38000
Route GREAS JAYEX OVR HLC GUP EAGUL6
Aircraft C750/M-SBDE3FGHRWXY/S

Departure

Time 2026-04-17 04:14
Airport General Mitchell International Airport (KMKE)

Arrival

Time 2026-04-17 07:16
Airport Phoenix Sky Harbor International Airport (KPHX)
Time Latitude Longitude Altitude Speed Heading
2026-04-17 03:58 42.95816 -87.89747 689 ft 0 kts 270°
2026-04-17 04:06 42.95803 -87.89758 686 ft 4 kts 176°
2026-04-17 04:07 42.95775 -87.89713 701 ft 9 kts 126°
2026-04-17 04:07 42.95744 -87.89624 697 ft 12 kts 100°
2026-04-17 04:07 42.95716 -87.89537 697 ft 9 kts 202°
2026-04-17 04:07 42.95648 -87.89547 696 ft 14 kts 169°
2026-04-17 04:08 42.95561 -87.89487 696 ft 14 kts 182°
2026-04-17 04:08 42.95470 -87.89501 692 ft 13 kts 186°
2026-04-17 04:08 42.95362 -87.89519 696 ft 19 kts 188°
2026-04-17 04:08 42.95204 -87.89547 687 ft 26 kts 187°
2026-04-17 04:09 42.95033 -87.89576 688 ft 23 kts 186°
2026-04-17 04:09 42.94878 -87.89601 690 ft 22 kts 188°
2026-04-17 04:09 42.94743 -87.89624 695 ft 17 kts 187°
2026-04-17 04:09 42.94621 -87.89648 698 ft 21 kts 189°
2026-04-17 04:10 42.94463 -87.89679 695 ft 22 kts 185°
2026-04-17 04:10 42.94320 -87.89698 699 ft 21 kts 187°
2026-04-17 04:10 42.94180 -87.89728 696 ft 20 kts 205°
2026-04-17 04:10 42.94083 -87.89846 695 ft 18 kts 221°
2026-04-17 04:11 42.93961 -87.89884 691 ft 19 kts 182°
2026-04-17 04:11 42.93819 -87.89888 690 ft 22 kts 181°
2026-04-17 04:11 42.93660 -87.89892 690 ft 23 kts 180°
2026-04-17 04:11 42.93508 -87.89895 693 ft 20 kts 182°
2026-04-17 04:12 42.93390 -87.89903 695 ft 15 kts 186°
2026-04-17 04:12 42.93275 -87.89919 701 ft 19 kts 185°
2026-04-17 04:12 42.93146 -87.89937 699 ft 17 kts 186°
2026-04-17 04:12 42.93076 -87.89905 704 ft 7 kts 109°
2026-04-17 04:13 42.93067 -87.89821 705 ft 13 kts 97°
2026-04-17 04:13 42.93130 -87.89753 703 ft 17 kts
2026-04-17 04:13 42.93396 -87.89705 698 ft 77 kts
2026-04-17 04:13 42.94188 -87.89573 692 ft 142 kts
2026-04-17 04:14 42.95176 -87.89418 1095 ft 144 kts
2026-04-17 04:14 42.96177 -87.89426 1536 ft 151 kts 341°
2026-04-17 04:14 42.96884 -87.90559 1746 ft 173 kts 288°
2026-04-17 04:14 42.97208 -87.92251 2062 ft 196 kts 285°
2026-04-17 04:15 42.97598 -87.94159 2473 ft 221 kts 285°
2026-04-17 04:15 42.97808 -87.96329 2859 ft 246 kts 266°
2026-04-17 04:15 42.97483 -87.98705 3478 ft 258 kts 259°
2026-04-17 04:15 42.97214 -88.01119 4439 ft 250 kts 264°
2026-04-17 04:16 42.97099 -88.03551 4925 ft 265 kts 268°
2026-04-17 04:16 42.97000 -88.06049 5878 ft 263 kts 266°
2026-04-17 04:16 42.96852 -88.08557 6688 ft 267 kts 266°
2026-04-17 04:16 42.96693 -88.11092 7521 ft 270 kts 266°
2026-04-17 04:17 42.96546 -88.13654 8415 ft 272 kts 266°
2026-04-17 04:17 42.96399 -88.16243 9319 ft 275 kts 266°
2026-04-17 04:17 42.96246 -88.18858 10110 ft 278 kts 267°
2026-04-17 04:17 42.96088 -88.21563 10465 ft 296 kts 266°
2026-04-17 04:18 42.95918 -88.24460 10716 ft 315 kts 266°
2026-04-17 04:18 42.95737 -88.27521 10976 ft 331 kts 266°
2026-04-17 04:18 42.95549 -88.30669 11445 ft 336 kts 266°
2026-04-17 04:18 42.95358 -88.33883 11927 ft 343 kts 266°
2026-04-17 04:19 42.95162 -88.37155 12461 ft 347 kts 266°
2026-04-17 04:19 42.94964 -88.40445 13083 ft 350 kts 266°
2026-04-17 04:19 42.94763 -88.43769 13678 ft 353 kts 266°
2026-04-17 04:19 42.94559 -88.47122 14228 ft 356 kts 266°
2026-04-17 04:20 42.94353 -88.50504 14747 ft 358 kts 266°
2026-04-17 04:20 42.94147 -88.53903 15288 ft 360 kts 266°
2026-04-17 04:20 42.94170 -88.57327 15764 ft 362 kts 273°
2026-04-17 04:20 42.94311 -88.60763 16354 ft 363 kts 274°
2026-04-17 04:21 42.94432 -88.64181 16920 ft 366 kts 273°
2026-04-17 04:21 42.94526 -88.67659 17506 ft 368 kts 272°
2026-04-17 04:21 42.94628 -88.71166 18115 ft 370 kts 273°
2026-04-17 04:21 42.94743 -88.74692 18668 ft 373 kts 273°
2026-04-17 04:22 42.94855 -88.78240 19214 ft 375 kts 273°
2026-04-17 04:22 42.94959 -88.81809 19768 ft 377 kts 273°
2026-04-17 04:22 42.95064 -88.85394 20329 ft 380 kts 273°
2026-04-17 04:22 42.95173 -88.89012 20897 ft 382 kts 273°
2026-04-17 04:23 42.95280 -88.92657 21457 ft 385 kts 273°
2026-04-17 04:23 42.95385 -88.96319 22015 ft 388 kts 272°
2026-04-17 04:23 42.95490 -89.00005 22564 ft 390 kts 272°
2026-04-17 04:23 42.95596 -89.03717 23119 ft 393 kts 272°
2026-04-17 04:24 42.95700 -89.07457 23637 ft 396 kts 272°
2026-04-17 04:24 42.95804 -89.11225 24102 ft 398 kts 272°
2026-04-17 04:24 42.95907 -89.15002 24566 ft 400 kts 272°
2026-04-17 04:24 42.96010 -89.18817 25032 ft 402 kts 272°
2026-04-17 04:25 42.96112 -89.22645 25493 ft 405 kts 272°
2026-04-17 04:25 42.96213 -89.26496 25960 ft 406 kts 272°
2026-04-17 04:25 42.96313 -89.30358 26424 ft 408 kts 272°
2026-04-17 04:25 42.96412 -89.34197 26869 ft 411 kts 272°
2026-04-17 04:26 42.96511 -89.38108 27324 ft 413 kts 272°
2026-04-17 04:26 42.96608 -89.42039 27779 ft 416 kts 272°
2026-04-17 04:26 42.96706 -89.45998 28232 ft 418 kts 272°
2026-04-17 04:26 42.96803 -89.49985 28694 ft 421 kts 272°
2026-04-17 04:27 42.96898 -89.53996 29148 ft 424 kts 272°
2026-04-17 04:27 42.96993 -89.58028 29590 ft 426 kts 272°
2026-04-17 04:27 42.97087 -89.62083 30022 ft 429 kts 272°
2026-04-17 04:27 42.97181 -89.66167 30398 ft 431 kts 272°
2026-04-17 04:28 42.97273 -89.70266 30793 ft 433 kts 272°
2026-04-17 04:28 42.97364 -89.74376 31310 ft 431 kts 271°
2026-04-17 04:28 42.97452 -89.78445 31938 ft 427 kts 271°
2026-04-17 04:28 42.97539 -89.82481 32533 ft 424 kts 271°
2026-04-17 04:29 42.97623 -89.86489 33124 ft 421 kts 271°
2026-04-17 04:29 42.97705 -89.90440 33721 ft 418 kts 271°
2026-04-17 04:29 42.97786 -89.94398 34273 ft 416 kts 271°
2026-04-17 04:29 42.97865 -89.98334 34755 ft 414 kts 271°
2026-04-17 04:30 42.97942 -90.02265 35238 ft 413 kts 271°
2026-04-17 04:30 42.98017 -90.06174 35745 ft 411 kts 271°
2026-04-17 04:30 42.98092 -90.10072 36211 ft 410 kts 270°
2026-04-17 04:30 42.98164 -90.13961 36681 ft 409 kts 270°
2026-04-17 04:31 42.98234 -90.17844 37149 ft 408 kts 270°
2026-04-17 04:31 42.98086 -90.21708 37571 ft 408 kts 263°
2026-04-17 04:31 42.97536 -90.25508 37954 ft 409 kts 256°
2026-04-17 04:32 42.95460 -90.32944 37957 ft 428 kts 249°
2026-04-17 04:32 42.93187 -90.40617 37946 ft 444 kts 249°
2026-04-17 04:33 42.90814 -90.48504 37950 ft 459 kts 249°
2026-04-17 04:33 42.88359 -90.56688 37952 ft 472 kts 249°
2026-04-17 04:34 42.84592 -90.69158 37953 ft 475 kts 249°
2026-04-17 04:34 42.82069 -90.77492 37953 ft 476 kts 249°
2026-04-17 04:35 42.79536 -90.85824 37938 ft 476 kts 249°
2026-04-17 04:35 42.76997 -90.94153 37932 ft 476 kts 249°
2026-04-17 04:36 42.74455 -91.02461 37930 ft 476 kts 249°
2026-04-17 04:36 42.71904 -91.10774 37926 ft 476 kts 249°
2026-04-17 04:37 42.69362 -91.19034 37920 ft 477 kts 250°
2026-04-17 04:37 42.66793 -91.27352 37916 ft 478 kts 249°
2026-04-17 04:38 42.64215 -91.35675 37913 ft 478 kts 249°
2026-04-17 04:38 42.61632 -91.43985 37907 ft 477 kts 249°
2026-04-17 04:39 42.59045 -91.52283 37907 ft 477 kts 249°
2026-04-17 04:39 42.56452 -91.60573 37899 ft 477 kts 250°
2026-04-17 04:40 42.53850 -91.68867 37893 ft 477 kts 250°
2026-04-17 04:40 42.51247 -91.77140 37898 ft 477 kts 249°
2026-04-17 04:41 42.48653 -91.85357 37890 ft 477 kts 249°
2026-04-17 04:41 42.46037 -91.93619 37934 ft 476 kts 250°
2026-04-17 04:42 42.43424 -92.01844 37932 ft 475 kts 250°
2026-04-17 04:42 42.40804 -92.10067 37925 ft 476 kts 249°
2026-04-17 04:43 42.38178 -92.18285 37899 ft 475 kts 249°
2026-04-17 04:43 42.35550 -92.26483 37893 ft 475 kts 249°
2026-04-17 04:44 42.32919 -92.34663 37882 ft 472 kts 250°
2026-04-17 04:44 42.30293 -92.42806 37880 ft 473 kts 250°
2026-04-17 04:45 42.27660 -92.50942 37874 ft 473 kts 249°
2026-04-17 04:45 42.25020 -92.59081 37870 ft 473 kts 249°
2026-04-17 04:46 42.22392 -92.67153 37864 ft 473 kts 249°
2026-04-17 04:46 42.19753 -92.75235 37864 ft 468 kts 250°
2026-04-17 04:47 42.17120 -92.83282 37893 ft 469 kts 249°
2026-04-17 04:47 42.14476 -92.91329 37883 ft 470 kts 250°
2026-04-17 04:48 42.11829 -92.99370 37884 ft 469 kts 249°
2026-04-17 04:48 42.09174 -93.07404 37886 ft 469 kts 250°
2026-04-17 04:49 42.06527 -93.15395 37876 ft 467 kts 250°
2026-04-17 04:49 42.03875 -93.23378 37866 ft 468 kts 250°
2026-04-17 04:50 42.01661 -93.30020 37858 ft 468 kts 250°
2026-04-17 04:50 41.98995 -93.38004 37862 ft 468 kts 250°
2026-04-17 04:51 41.95893 -93.47258 37865 ft 468 kts 249°
2026-04-17 04:51 41.93665 -93.53888 37869 ft 468 kts 249°
2026-04-17 04:52 41.90964 -93.61903 37870 ft 468 kts 249°
2026-04-17 04:52 41.88273 -93.69865 37869 ft 468 kts 249°
2026-04-17 04:53 41.85595 -93.77767 37862 ft 468 kts 249°
2026-04-17 04:55 41.74756 -94.09518 37845 ft 468 kts 248°
2026-04-17 04:55 41.72035 -94.17432 37845 ft 468 kts 248°
2026-04-17 04:56 41.69313 -94.25327 37830 ft 464 kts 248°
2026-04-17 04:56 41.66608 -94.33153 37839 ft 463 kts 248°
2026-04-17 04:57 41.63909 -94.40935 37839 ft 464 kts 248°
2026-04-17 04:57 41.61191 -94.48754 37831 ft 464 kts 248°
2026-04-17 04:58 41.58466 -94.56567 37825 ft 464 kts 248°
2026-04-17 04:58 41.55753 -94.64327 37835 ft 458 kts 247°
2026-04-17 04:59 41.53047 -94.72047 37845 ft 459 kts 247°
2026-04-17 04:59 41.50335 -94.79761 37839 ft 459 kts 247°
2026-04-17 05:00 41.47620 -94.87464 37837 ft 459 kts 247°
2026-04-17 05:00 41.44898 -94.95161 37834 ft 458 kts 247°
2026-04-17 05:01 41.42205 -95.02760 37830 ft 455 kts 246°
2026-04-17 05:01 41.39496 -95.10384 37824 ft 456 kts 246°
2026-04-17 05:02 41.36781 -95.18002 37828 ft 455 kts 246°
2026-04-17 05:02 41.34059 -95.25620 37825 ft 456 kts 246°
2026-04-17 05:03 41.31331 -95.33234 37833 ft 456 kts 246°
2026-04-17 05:03 41.28609 -95.40811 37808 ft 453 kts 245°
2026-04-17 05:04 41.25886 -95.48371 37796 ft 453 kts 245°
2026-04-17 05:04 41.23155 -95.55933 37796 ft 454 kts 245°
2026-04-17 05:05 41.20421 -95.63483 37793 ft 453 kts 245°
2026-04-17 05:05 41.17697 -95.70988 37794 ft 454 kts 245°
2026-04-17 05:06 41.14843 -95.78443 37807 ft 453 kts 243°
2026-04-17 05:06 41.11905 -95.85851 37811 ft 453 kts 243°
2026-04-17 05:07 41.08973 -95.93265 37809 ft 454 kts 243°
2026-04-17 05:07 41.06028 -96.00666 37812 ft 453 kts 243°
2026-04-17 05:08 41.03088 -96.08052 37816 ft 453 kts 243°
2026-04-17 05:08 41.00144 -96.15422 37799 ft 452 kts 243°
2026-04-17 05:09 40.97197 -96.22783 37790 ft 453 kts 242°
2026-04-17 05:09 40.94260 -96.30101 37761 ft 454 kts 242°
2026-04-17 05:10 40.91295 -96.37470 37752 ft 453 kts 242°
2026-04-17 05:10 40.88331 -96.44820 37750 ft 453 kts 242°
2026-04-17 05:11 40.85360 -96.52167 37755 ft 452 kts 242°
2026-04-17 05:11 40.82388 -96.59498 37771 ft 452 kts 242°
2026-04-17 05:12 40.79413 -96.66820 37770 ft 452 kts 242°
2026-04-17 05:12 40.76434 -96.74134 37741 ft 452 kts 242°
2026-04-17 05:13 40.73451 -96.81439 37738 ft 453 kts 242°
2026-04-17 05:13 40.70455 -96.88758 37723 ft 454 kts 241°
2026-04-17 05:14 40.67457 -96.96065 37724 ft 456 kts 241°
2026-04-17 05:14 40.64433 -97.03418 37712 ft 456 kts 241°
2026-04-17 05:15 40.61406 -97.10757 37719 ft 456 kts 241°
2026-04-17 05:15 40.58377 -97.18086 37712 ft 456 kts 240°
2026-04-17 05:16 40.55343 -97.25408 37715 ft 456 kts 240°
2026-04-17 05:16 40.52304 -97.32726 37707 ft 456 kts 240°
2026-04-17 05:17 40.49260 -97.40036 37707 ft 456 kts 240°
2026-04-17 05:17 40.46208 -97.47349 37712 ft 456 kts 240°
2026-04-17 05:18 40.43155 -97.54646 37721 ft 456 kts 240°
2026-04-17 05:18 40.40092 -97.61951 37717 ft 457 kts 240°
2026-04-17 05:19 40.37043 -97.69201 37721 ft 457 kts 240°
2026-04-17 05:19 40.33974 -97.76485 37719 ft 457 kts 240°
2026-04-17 05:20 40.30893 -97.83778 37717 ft 457 kts 240°
2026-04-17 05:20 40.27807 -97.91066 37705 ft 457 kts 240°
2026-04-17 05:21 40.24718 -97.98344 37701 ft 457 kts 239°
2026-04-17 05:21 40.21604 -98.05663 37684 ft 460 kts 239°
2026-04-17 05:22 40.18489 -98.12968 37665 ft 460 kts 239°
2026-04-17 05:22 40.15355 -98.20297 37665 ft 461 kts 239°
2026-04-17 05:23 40.12239 -98.27570 37662 ft 461 kts 239°
2026-04-17 05:23 40.09099 -98.34879 37665 ft 461 kts 239°
2026-04-17 05:24 40.05937 -98.42222 37660 ft 465 kts 238°
2026-04-17 05:24 40.02764 -98.49575 37651 ft 464 kts 238°
2026-04-17 05:25 39.99584 -98.56924 37653 ft 464 kts 238°
2026-04-17 05:25 39.96407 -98.64250 37656 ft 464 kts 238°
2026-04-17 05:26 39.93245 -98.71524 37645 ft 464 kts 238°
2026-04-17 05:26 39.90045 -98.78867 37640 ft 468 kts 238°
2026-04-17 05:27 39.86831 -98.86227 37633 ft 467 kts 238°
2026-04-17 05:27 39.83617 -98.93567 37639 ft 467 kts 238°
2026-04-17 05:28 39.80395 -99.00909 37642 ft 467 kts 238°
2026-04-17 05:28 39.77171 -99.08239 37649 ft 467 kts 238°
2026-04-17 05:29 39.73939 -99.15568 37663 ft 466 kts 238°
2026-04-17 05:29 39.70710 -99.22872 37667 ft 466 kts 238°
2026-04-17 05:30 39.67469 -99.30188 37668 ft 467 kts 238°
2026-04-17 05:30 39.64225 -99.37492 37660 ft 467 kts 238°
2026-04-17 05:31 39.60988 -99.44765 37622 ft 468 kts 238°
2026-04-17 05:31 39.57734 -99.52061 37634 ft 464 kts 238°
2026-04-17 05:32 39.54495 -99.59300 37639 ft 465 kts 238°
2026-04-17 05:32 39.51248 -99.66546 37649 ft 465 kts 238°
2026-04-17 05:33 39.47992 -99.73792 37660 ft 465 kts 238°
2026-04-17 05:33 39.44751 -99.80990 37667 ft 465 kts 238°
2026-04-17 05:34 39.41499 -99.88197 37670 ft 461 kts 238°
2026-04-17 05:34 39.38256 -99.95364 37665 ft 462 kts 238°
2026-04-17 05:35 39.35005 -100.02533 37598 ft 463 kts 238°
2026-04-17 05:35 39.31747 -100.09702 37593 ft 463 kts 238°
2026-04-17 05:36 39.28486 -100.16861 37591 ft 462 kts 238°
2026-04-17 05:36 39.25303 -100.24060 37585 ft 462 kts 242°
2026-04-17 05:37 39.22486 -100.31511 37590 ft 461 kts 242°
2026-04-17 05:37 39.19656 -100.38875 37595 ft 462 kts 242°
2026-04-17 05:38 39.16824 -100.46308 37607 ft 462 kts 242°
2026-04-17 05:38 39.13972 -100.53721 37624 ft 462 kts 242°
2026-04-17 05:39 39.11605 -100.59889 37638 ft 461 kts 242°
2026-04-17 05:39 39.08761 -100.67261 37625 ft 460 kts 242°
2026-04-17 05:40 39.05909 -100.74645 37652 ft 461 kts 242°
2026-04-17 05:40 39.03054 -100.82017 37654 ft 461 kts 242°
2026-04-17 05:41 39.00191 -100.89392 37644 ft 461 kts 242°
2026-04-17 05:41 38.97324 -100.96757 37632 ft 460 kts 242°
2026-04-17 05:42 38.94450 -101.04123 37614 ft 461 kts 242°
2026-04-17 05:42 38.91572 -101.11485 37601 ft 461 kts 242°
2026-04-17 05:43 38.88708 -101.18791 37599 ft 460 kts 242°
2026-04-17 05:43 38.85807 -101.26174 37594 ft 461 kts 242°
2026-04-17 05:44 38.82932 -101.33473 37606 ft 461 kts 242°
2026-04-17 05:44 38.80034 -101.40812 37610 ft 461 kts 242°
2026-04-17 05:45 38.77133 -101.48142 37602 ft 461 kts 242°
2026-04-17 05:45 38.74230 -101.55458 37599 ft 461 kts 242°
2026-04-17 05:46 38.71321 -101.62774 37607 ft 460 kts 242°
2026-04-17 05:46 38.68410 -101.70074 37606 ft 461 kts 242°
2026-04-17 05:47 38.65485 -101.77397 37606 ft 462 kts 242°
2026-04-17 05:47 38.62557 -101.84706 37612 ft 462 kts 242°
2026-04-17 05:48 38.59643 -101.91965 37624 ft 462 kts 242°
2026-04-17 05:48 38.56710 -101.99255 37620 ft 462 kts 242°
2026-04-17 05:49 38.53766 -102.06552 37616 ft 462 kts 242°
2026-04-17 05:49 38.50813 -102.13855 37617 ft 462 kts 242°
2026-04-17 05:50 38.47861 -102.21139 37601 ft 462 kts 242°
2026-04-17 05:50 38.44913 -102.28396 37616 ft 460 kts 242°
2026-04-17 05:51 38.41962 -102.35645 37616 ft 461 kts 242°
2026-04-17 05:51 38.39003 -102.42894 37612 ft 461 kts 242°
2026-04-17 05:52 38.36048 -102.50119 37622 ft 460 kts 242°
2026-04-17 05:52 38.33086 -102.57341 37639 ft 460 kts 242°
2026-04-17 05:53 38.30120 -102.64559 37656 ft 460 kts 242°
2026-04-17 05:53 38.27152 -102.71764 37667 ft 459 kts 242°
2026-04-17 05:54 38.24177 -102.78971 37677 ft 459 kts 242°
2026-04-17 05:54 38.21225 -102.86105 37671 ft 455 kts 242°
2026-04-17 05:55 38.18273 -102.93221 37662 ft 456 kts 242°
2026-04-17 05:55 38.15338 -103.00282 37644 ft 450 kts 242°
2026-04-17 05:56 38.12410 -103.07311 37628 ft 450 kts 242°
2026-04-17 05:56 38.09471 -103.14350 37673 ft 450 kts 242°
2026-04-17 05:57 38.06565 -103.21293 37675 ft 444 kts 241°
2026-04-17 05:57 38.03658 -103.28224 37709 ft 445 kts 241°
2026-04-17 05:58 38.00738 -103.35173 37740 ft 445 kts 241°
2026-04-17 05:59 37.96372 -103.45532 37623 ft 446 kts 241°
2026-04-17 05:59 37.93448 -103.52451 37631 ft 447 kts 241°
2026-04-17 06:00 37.90504 -103.59399 37633 ft 447 kts 241°
2026-04-17 06:00 37.87562 -103.66333 37635 ft 447 kts 241°
2026-04-17 06:01 37.84614 -103.73262 37631 ft 447 kts 241°
2026-04-17 06:01 37.81666 -103.80177 37635 ft 447 kts 241°
2026-04-17 06:02 37.78712 -103.87089 37634 ft 447 kts 241°
2026-04-17 06:02 37.75729 -103.94057 37634 ft 451 kts 241°
2026-04-17 06:03 37.72740 -104.01022 37632 ft 451 kts 241°
2026-04-17 06:03 37.69750 -104.07975 37632 ft 451 kts 241°
2026-04-17 06:04 37.66751 -104.14933 37631 ft 450 kts 241°
2026-04-17 06:04 37.63752 -104.21877 37635 ft 451 kts 241°
2026-04-17 06:05 37.60751 -104.28809 37632 ft 455 kts 241°
2026-04-17 06:05 37.57715 -104.35810 37646 ft 454 kts 241°
2026-04-17 06:06 37.54680 -104.42788 37657 ft 454 kts 241°
2026-04-17 06:06 37.51637 -104.49776 37658 ft 454 kts 240°
2026-04-17 06:07 37.48591 -104.56751 37682 ft 455 kts 240°
2026-04-17 06:07 37.45540 -104.63723 37687 ft 455 kts 240°
2026-04-17 06:08 37.42485 -104.70689 37713 ft 454 kts 240°
2026-04-17 06:08 37.39425 -104.77655 37714 ft 455 kts 240°
2026-04-17 06:09 37.36365 -104.84601 37714 ft 454 kts 240°
2026-04-17 06:09 37.33298 -104.91551 37733 ft 454 kts 240°
2026-04-17 06:10 37.30218 -104.98515 37758 ft 459 kts 240°
2026-04-17 06:10 37.27116 -105.05513 37761 ft 458 kts 240°
2026-04-17 06:11 37.24014 -105.12496 37789 ft 459 kts 240°
2026-04-17 06:11 37.20904 -105.19483 37791 ft 459 kts 240°
2026-04-17 06:12 37.17802 -105.26435 37835 ft 455 kts 240°
2026-04-17 06:12 37.14724 -105.33321 37839 ft 457 kts 240°
2026-04-17 06:13 37.11611 -105.40270 37848 ft 456 kts 240°
2026-04-17 06:13 37.08503 -105.47192 37848 ft 456 kts 240°
2026-04-17 06:14 37.05387 -105.54118 37859 ft 456 kts 240°
2026-04-17 06:14 37.02269 -105.61034 37857 ft 456 kts 240°
2026-04-17 06:15 36.99143 -105.67954 37851 ft 454 kts 241°
2026-04-17 06:15 36.96033 -105.74822 37850 ft 454 kts 241°
2026-04-17 06:16 36.92933 -105.81655 37855 ft 454 kts 241°
2026-04-17 06:16 36.89811 -105.88521 37857 ft 454 kts 241°
2026-04-17 06:17 36.86683 -105.95388 37803 ft 454 kts 241°
2026-04-17 06:17 36.83559 -106.02230 37858 ft 453 kts 240°
2026-04-17 06:18 36.80438 -106.09053 37866 ft 452 kts 240°
2026-04-17 06:18 36.77315 -106.15864 37876 ft 453 kts 240°
2026-04-17 06:19 36.74185 -106.22678 37884 ft 452 kts 240°
2026-04-17 06:19 36.71052 -106.29484 37887 ft 452 kts 240°
2026-04-17 06:20 36.67916 -106.36283 37929 ft 452 kts 240°
2026-04-17 06:20 36.64851 -106.42914 37877 ft 441 kts 240°
2026-04-17 06:21 36.61775 -106.49556 37879 ft 443 kts 240°
2026-04-17 06:21 36.58691 -106.56202 37878 ft 443 kts 240°
2026-04-17 06:22 36.55601 -106.62847 37871 ft 444 kts 240°
2026-04-17 06:22 36.52513 -106.69475 37858 ft 443 kts 240°
2026-04-17 06:23 36.49459 -106.76019 37859 ft 438 kts 239°
2026-04-17 06:23 36.46910 -106.81468 37868 ft 438 kts 239°
2026-04-17 06:24 36.43348 -106.89071 37868 ft 438 kts 239°
2026-04-17 06:24 36.40279 -106.95607 37873 ft 439 kts 239°
2026-04-17 06:25 36.37702 -107.01084 37873 ft 439 kts 239°
2026-04-17 06:25 36.34630 -107.07603 37867 ft 440 kts 239°
2026-04-17 06:26 36.31530 -107.14168 37864 ft 441 kts 239°
2026-04-17 06:26 36.28431 -107.20719 37860 ft 440 kts 239°
2026-04-17 06:27 36.25325 -107.27272 37860 ft 440 kts 239°
2026-04-17 06:27 36.22214 -107.33822 37854 ft 441 kts 239°
2026-04-17 06:28 36.19105 -107.40356 37851 ft 440 kts 239°
2026-04-17 06:28 36.15980 -107.46911 37844 ft 443 kts 239°
2026-04-17 06:29 36.12866 -107.53429 37846 ft 443 kts 239°
2026-04-17 06:29 36.09726 -107.59989 37841 ft 443 kts 239°
2026-04-17 06:30 36.06585 -107.66539 37838 ft 443 kts 239°
2026-04-17 06:30 36.03441 -107.73082 37843 ft 443 kts 239°
2026-04-17 06:31 36.00281 -107.79646 37825 ft 447 kts 239°
2026-04-17 06:31 35.97117 -107.86206 37826 ft 447 kts 239°
2026-04-17 06:32 35.93934 -107.92792 37812 ft 446 kts 239°
2026-04-17 06:32 35.90750 -107.99369 37812 ft 447 kts 239°
2026-04-17 06:33 35.87562 -108.05939 37800 ft 446 kts 238°
2026-04-17 06:33 35.84370 -108.12508 37802 ft 446 kts 238°
2026-04-17 06:34 35.81181 -108.19056 37790 ft 445 kts 239°
2026-04-17 06:34 35.77990 -108.25595 37788 ft 444 kts 239°
2026-04-17 06:35 35.74802 -108.32115 37789 ft 445 kts 239°
2026-04-17 06:35 35.71625 -108.38603 37791 ft 445 kts 238°
2026-04-17 06:36 35.68428 -108.45117 37781 ft 448 kts 238°
2026-04-17 06:36 35.65184 -108.51715 37783 ft 451 kts 238°
2026-04-17 06:37 35.61935 -108.58310 37776 ft 451 kts 238°
2026-04-17 06:37 35.58681 -108.64902 37774 ft 451 kts 238°
2026-04-17 06:38 35.55420 -108.71498 37768 ft 451 kts 238°
2026-04-17 06:38 35.52178 -108.78039 38036 ft 451 kts 238°
2026-04-17 06:39 35.48885 -108.84665 38018 ft 455 kts 238°
2026-04-17 06:39 35.44959 -108.90691 37993 ft 451 kts 228°
2026-04-17 06:40 35.40639 -108.96285 37941 ft 451 kts 228°
2026-04-17 06:40 35.36320 -109.01887 37901 ft 452 kts 228°
2026-04-17 06:41 35.32019 -109.07438 37846 ft 452 kts 228°
2026-04-17 06:41 35.27694 -109.13023 37825 ft 453 kts 228°
2026-04-17 06:42 35.23332 -109.18639 37826 ft 456 kts 228°
2026-04-17 06:42 35.18964 -109.24258 37825 ft 455 kts 228°
2026-04-17 06:43 35.14616 -109.29838 37816 ft 448 kts 228°
2026-04-17 06:43 35.10306 -109.35365 37815 ft 450 kts 228°
2026-04-17 06:44 35.05990 -109.40886 37815 ft 450 kts 228°
2026-04-17 06:44 35.01662 -109.46416 37825 ft 450 kts 228°
2026-04-17 06:45 34.97343 -109.51926 37824 ft 453 kts 227°
2026-04-17 06:45 34.92978 -109.57483 37826 ft 453 kts 227°
2026-04-17 06:46 34.88617 -109.63028 37821 ft 453 kts 227°
2026-04-17 06:46 34.84273 -109.68541 37822 ft 446 kts 227°
2026-04-17 06:47 34.79977 -109.74008 37821 ft 447 kts 227°
2026-04-17 06:47 34.75714 -109.79440 37822 ft 447 kts 227°
2026-04-17 06:48 34.71599 -109.85165 37819 ft 451 kts 234°
2026-04-17 06:48 34.68511 -109.91787 37826 ft 451 kts 244°
2026-04-17 06:49 34.65922 -109.98751 37841 ft 452 kts 243°
2026-04-17 06:49 34.63323 -110.05704 37847 ft 452 kts 244°
2026-04-17 06:50 34.60728 -110.12657 37843 ft 452 kts 244°
2026-04-17 06:50 34.59434 -110.16102 37362 ft 446 kts 244°
2026-04-17 06:50 34.58149 -110.19532 36775 ft 448 kts 244°
2026-04-17 06:50 34.56876 -110.22930 36203 ft 449 kts 244°
2026-04-17 06:51 34.55582 -110.26373 35610 ft 445 kts 244°
2026-04-17 06:51 34.54304 -110.29772 35022 ft 440 kts 244°
2026-04-17 06:51 34.53042 -110.33125 34452 ft 429 kts 244°
2026-04-17 06:51 34.51836 -110.36329 33898 ft 408 kts 244°
2026-04-17 06:52 34.50685 -110.39382 33334 ft 389 kts 244°
2026-04-17 06:52 34.49573 -110.42323 32826 ft 381 kts 244°
2026-04-17 06:52 34.48468 -110.45244 32332 ft 382 kts 244°
2026-04-17 06:52 34.47357 -110.48180 31837 ft 384 kts 244°
2026-04-17 06:53 34.46228 -110.51161 31349 ft 391 kts 245°
2026-04-17 06:53 34.45092 -110.54161 30828 ft 391 kts 245°
2026-04-17 06:53 34.43946 -110.57179 29738 ft 397 kts 245°
2026-04-17 06:53 34.42794 -110.60213 28480 ft 394 kts 245°
2026-04-17 06:54 34.41667 -110.63178 27306 ft 390 kts 245°
2026-04-17 06:54 34.40542 -110.66134 26201 ft 382 kts 245°
2026-04-17 06:54 34.39452 -110.68997 25633 ft 367 kts 245°
2026-04-17 06:54 34.38395 -110.71772 25005 ft 361 kts 245°
2026-04-17 06:55 34.37353 -110.74503 24580 ft 354 kts 245°
2026-04-17 06:55 34.36323 -110.77201 24204 ft 354 kts 245°
2026-04-17 06:55 34.35145 -110.79802 23784 ft 354 kts 235°
2026-04-17 06:55 34.33511 -110.82020 23418 ft 353 kts 228°
2026-04-17 06:56 34.31829 -110.84173 23007 ft 352 kts 228°
2026-04-17 06:56 34.30163 -110.86336 22618 ft 350 kts 229°
2026-04-17 06:56 34.28506 -110.88494 22232 ft 349 kts 229°
2026-04-17 06:56 34.26854 -110.90628 21850 ft 347 kts 228°
2026-04-17 06:57 34.25206 -110.92752 21482 ft 346 kts 228°
2026-04-17 06:57 34.23567 -110.94870 21113 ft 344 kts 228°
2026-04-17 06:57 34.21931 -110.96984 20743 ft 343 kts 228°
2026-04-17 06:57 34.20306 -110.99081 20377 ft 341 kts 228°
2026-04-17 06:58 34.18707 -111.01142 20013 ft 340 kts 228°
2026-04-17 06:58 34.17094 -111.03220 19650 ft 338 kts 228°
2026-04-17 06:58 34.15485 -111.05294 19282 ft 337 kts 228°
2026-04-17 06:58 34.13887 -111.07350 18908 ft 331 kts 228°
2026-04-17 06:59 34.12346 -111.09331 18653 ft 319 kts 228°
2026-04-17 06:59 34.10822 -111.11290 18337 ft 320 kts 228°
2026-04-17 06:59 34.09302 -111.13246 17969 ft 319 kts 228°
2026-04-17 06:59 34.07785 -111.15193 17612 ft 318 kts 228°
2026-04-17 07:00 34.06265 -111.17144 17261 ft 318 kts 228°
2026-04-17 07:00 34.04758 -111.19078 16911 ft 315 kts 228°
2026-04-17 07:00 34.03255 -111.21005 16559 ft 314 kts 227°
2026-04-17 07:00 34.01784 -111.22889 16223 ft 311 kts 227°
2026-04-17 07:01 34.00305 -111.24783 15869 ft 309 kts 227°
2026-04-17 07:01 33.98837 -111.26662 15524 ft 307 kts 227°
2026-04-17 07:01 33.97379 -111.28529 15177 ft 305 kts 227°
2026-04-17 07:01 33.95927 -111.30384 14832 ft 302 kts 227°
2026-04-17 07:02 33.94487 -111.32224 14488 ft 301 kts 227°
2026-04-17 07:02 33.93061 -111.34046 14154 ft 299 kts 227°
2026-04-17 07:02 33.91636 -111.35866 13818 ft 297 kts 227°
2026-04-17 07:02 33.90223 -111.37668 13458 ft 295 kts 227°
2026-04-17 07:03 33.88829 -111.39447 13132 ft 286 kts 227°
2026-04-17 07:03 33.87392 -111.41037 12784 ft 278 kts 217°
2026-04-17 07:03 33.85816 -111.42366 12503 ft 277 kts 216°
2026-04-17 07:03 33.84239 -111.43708 12197 ft 277 kts 216°
2026-04-17 07:04 33.82678 -111.45061 11880 ft 277 kts 217°
2026-04-17 07:04 33.81139 -111.46391 11593 ft 275 kts 216°
2026-04-17 07:04 33.79586 -111.47721 11294 ft 274 kts 216°
2026-04-17 07:04 33.78042 -111.49046 10991 ft 271 kts 216°
2026-04-17 07:05 33.76509 -111.50366 10697 ft 270 kts 215°
2026-04-17 07:05 33.74982 -111.51680 10399 ft 269 kts 215°
2026-04-17 07:05 33.73460 -111.52986 10104 ft 267 kts 215°
2026-04-17 07:05 33.71949 -111.54284 9813 ft 267 kts 214°
2026-04-17 07:06 33.70440 -111.55580 9494 ft 265 kts 214°
2026-04-17 07:06 33.68947 -111.56860 9209 ft 262 kts 215°
2026-04-17 07:06 33.67501 -111.58100 8922 ft 247 kts 215°
2026-04-17 07:06 33.66154 -111.59255 8652 ft 235 kts 215°
2026-04-17 07:07 33.64854 -111.60368 8388 ft 223 kts 216°
2026-04-17 07:07 33.63622 -111.61418 8193 ft 213 kts 215°
2026-04-17 07:07 33.62402 -111.62435 7951 ft 215 kts 215°
2026-04-17 07:07 33.61167 -111.63464 7728 ft 217 kts 215°
2026-04-17 07:08 33.59927 -111.64501 7507 ft 218 kts 216°
2026-04-17 07:08 33.58686 -111.65539 7272 ft 217 kts 216°
2026-04-17 07:08 33.57438 -111.66583 7043 ft 219 kts 216°
2026-04-17 07:08 33.56194 -111.67623 6813 ft 218 kts 216°
2026-04-17 07:09 33.54951 -111.68666 6580 ft 219 kts 217°
2026-04-17 07:09 33.53709 -111.69718 6342 ft 218 kts 217°
2026-04-17 07:09 33.52468 -111.70770 6092 ft 219 kts 217°
2026-04-17 07:09 33.51225 -111.71818 5850 ft 218 kts 217°
2026-04-17 07:10 33.49985 -111.72864 5609 ft 217 kts 217°
2026-04-17 07:10 33.48754 -111.73902 5381 ft 216 kts 217°
2026-04-17 07:10 33.47526 -111.74938 5146 ft 216 kts 217°
2026-04-17 07:10 33.46296 -111.75975 4911 ft 215 kts 217°
2026-04-17 07:11 33.45090 -111.76991 4682 ft 213 kts 217°
2026-04-17 07:11 33.43973 -111.78008 4428 ft 191 kts 226°
2026-04-17 07:11 33.43252 -111.79241 4247 ft 175 kts 243°
2026-04-17 07:11 33.42942 -111.80629 4047 ft 172 kts 263°
2026-04-17 07:12 33.42903 -111.82055 3885 ft 171 kts 267°
2026-04-17 07:12 33.42890 -111.83472 3703 ft 170 kts 268°
2026-04-17 07:12 33.42889 -111.84866 3570 ft 168 kts 268°
2026-04-17 07:12 33.42887 -111.86269 3355 ft 166 kts 268°
2026-04-17 07:13 33.42890 -111.87556 3120 ft 140 kts 268°
2026-04-17 07:13 33.42893 -111.88627 2945 ft 122 kts 267°
2026-04-17 07:13 33.42895 -111.89629 2801 ft 119 kts 267°
2026-04-17 07:13 33.42891 -111.90625 2652 ft 119 kts 268°
2026-04-17 07:14 33.42891 -111.91607 2501 ft 117 kts 267°
2026-04-17 07:14 33.42892 -111.92574 2353 ft 116 kts 267°
2026-04-17 07:14 33.42892 -111.93540 2207 ft 117 kts 267°
2026-04-17 07:14 33.42888 -111.94198 2118 ft 120 kts 268°
2026-04-17 07:15 33.42888 -111.95536 1911 ft 122 kts 269°
2026-04-17 07:15 33.42886 -111.96220 1822 ft 121 kts 269°
2026-04-17 07:15 33.42872 -111.97567 1575 ft 122 kts 270°
2026-04-17 07:15 33.42876 -111.98237 1473 ft 118 kts 272°
2026-04-17 07:16 33.42879 -111.99219 1323 ft 117 kts 272°
2026-04-17 07:16 33.42882 -112.00193 1182 ft 117 kts 272°
2026-04-17 07:16 33.42884 -112.01114 1122 ft 99 kts 270°
2026-04-17 07:16 33.42884 -112.01671 1122 ft 40 kts 270°
2026-04-17 07:17 33.42882 -112.01971 1120 ft 34 kts 265°
2026-04-17 07:17 33.42833 -112.02148 1118 ft 11 kts 206°
2026-04-17 07:17 33.42722 -112.02114 1119 ft 8 kts 178°
2026-04-17 07:18 33.42668 -112.02113 1116 ft 7 kts 178°
2026-04-17 07:18 33.42620 -112.02111 1121 ft 7 kts 178°
2026-04-17 07:18 33.42579 -112.02103 1116 ft 5 kts 158°
2026-04-17 07:18 33.42558 -112.02086 1119 ft 0 kts 144°